Location: Unspecified
(42.9300°N, 71.1866°W)
Time: 02:06:19
(UTC-05:00)

CZ-3 Stage 3 - Visible Passes

Search period start: 16 December 2017 00:00
Search period end: 26 December 2017 00:00
Orbit: 418 x 34779 km, 31.0° (Epoch: 15 December)

Date Brightness Start Highest point End Pass type
(mag) Time Alt. Az. Time Alt. Az. Time Alt. Az.
16 Dec 5.9 02:40:58 24° SSE 02:40:58 24° SSE 02:56:26 10° SE visible
18 Dec 6.6 06:05:36 10° SW 06:23:38 19° SSW 09:05:14 10° S visible
19 Dec 6.0 02:32:13 22° SSE 02:32:13 22° SSE 02:46:13 10° SE visible
20 Dec 5.6 19:08:56 10° S 19:10:31 10° S 19:11:49 10° S visible
21 Dec 6.6 05:56:56 10° SW 06:14:48 18° SSW 08:35:22 10° S visible
22 Dec 6.1 02:23:29 21° SSE 02:23:29 21° SSE 02:35:58 10° SE visible
23 Dec 5.4 18:58:05 10° SSW 19:01:16 11° S 19:03:30 10° SSE visible
24 Dec 6.7 05:48:21 10° SW 06:05:58 17° SSW 08:05:50 10° S visible
25 Dec 6.3 02:14:46 19° SSE 02:14:46 19° SSE 02:25:44 10° SE visible
